Location: Bun Machan
(52.1403°N, 7.3744°W)
Time: 18:29:15
(UTC+00:00)

CZ-4B R/B - Pass Details

Date: 14 July 2020
Orbit: 702 x 803 km, 98.9° (Epoch: 11 August)

Event Time Altitude Azimuth Distance (km) Brightness Sun altitude
Rises 02:17:25 0° 18° (NNE) 3,263 8.8 -12.9°
Reaches altitude 10° 02:19:50 10° 24° (NNE) 2,315 7.5 -12.8°
Maximum altitude 02:24:48 51° 100° (E) 939 4.1 -12.5°
Enters shadow 02:29:10 12° 175° (S) 2,078 5.2 -12.2°
